This is the latest recevied weather packets stored in our database for station/object N9BLE. If no packets are shown the sender has not sent any weather packets the latest 10 day(s).
| Time | Temp. | Humidity | Pressure | Rain* | Wind** | Luminosity | Snow |
|---|---|---|---|---|---|---|---|
| 1777948128 | 17.22° C | 67% | 1004.8 hPa | 0 mm | - | 0 W/m² | - |
| 1777947825 | 17.22° C | 68% | 1004.7 hPa | 0 mm | - | 0 W/m² | - |
| 1777947522 | 16.67° C | 69% | 1004.6 hPa | 0 mm | - | 0 W/m² | - |
| 1777947218 | 16.11° C | 73% | 1004.5 hPa | 0 mm | - | 0 W/m² | - |
| 1777946914 | 16.11° C | 74% | 1004.3 hPa | 0 mm | - | 0 W/m² | - |
| 1777946610 | 16.11° C | 75% | 1003.9 hPa | 0 mm | - | 0 W/m² | - |
| 1777946307 | 16.11° C | 76% | 1003.9 hPa | 0 mm | - | 0 W/m² | - |
| 1777946004 | 16.11° C | 76% | 1003.7 hPa | 0 mm | - | 0 W/m² | - |
| 1777945701 | 16.11° C | 76% | 1003.6 hPa | 0 mm | - | 0 W/m² | - |
| 1777945398 | 16.11° C | 77% | 1003.4 hPa | 0 mm | - | 0 W/m² | - |
| 1777945094 | 16.11° C | 77% | 1003.6 hPa | 0 mm | - | 0 W/m² | - |
| 1777944792 | 16.67° C | 77% | 1003.2 hPa | 0 mm | - | 0 W/m² | - |
| 1777944491 | 16.67° C | 77% | 1003.2 hPa | 0 mm | - | 0 W/m² | - |
| 1777944188 | 16.67° C | 76% | 1003 hPa | 0 mm | - | 0 W/m² | - |
| 1777943883 | 16.67° C | 74% | 1002.9 hPa | 0 mm | - | 0 W/m² | - |
| 1777943581 | 17.22° C | 72% | 1003 hPa | 0 mm | - | 0 W/m² | - |
| 1777943276 | 17.22° C | 72% | 1002.9 hPa | 0 mm | - | 0 W/m² | - |
| 1777942973 | 17.78° C | 69% | 1003 hPa | 0 mm | - | 0 W/m² | - |
| 1777942669 | 18.33° C | 67% | 1002.9 hPa | 0 mm | - | 1 W/m² | - |
| 1777942366 | 18.89° C | 62% | 1002.9 hPa | 0 mm | - | 3 W/m² | - |
| 1777942063 | 18.89° C | 61% | 1002.7 hPa | 0 mm | - | 5 W/m² | - |
| 1777941759 | 20° C | 58% | 1002.7 hPa | 0 mm | - | 6 W/m² | - |
| 1777941457 | 20° C | 55% | 1002.3 hPa | 0 mm | - | 8 W/m² | - |
| 1777941154 | 19.44° C | 56% | 1002.4 hPa | 0 mm | - | 9 W/m² | - |
| 1777940851 | 19.44° C | 57% | 1001.9 hPa | 0 mm | - | 8 W/m² | - |
* Rain latest hour (hover to see other rain measurements)
** Current wind speed in m/s (hover to see current wind gust speed)